This demonstration page uses our WeatherBlox Daily Observations layout. Learn more.

Left ArrowRight Arrow

40.92945, -100.16068

Hourly Observations for December 9, 2022

Temp ( °F °C ) Dew Point ( °F °C ) Humidity (%) Winds ( mph kmh ) Pressure ( in mb ) Visibility ( mi km ) Precip ( " mm )
12:15 am 00:15 Mostly Cloudy 29 -1.9 27 -2.9 93 93 WNW 10 17 30.23 1024 10 16 0.00 0.00
12:35 am 00:35 Mostly Cloudy 28 -2.1 26 -3.4 91 91 WNW 9 15 30.24 1024 10 16 0.00 0.00
12:55 am 00:55 Clear 27 -2.8 25 -4 91 91 WNW 8 13 30.23 1024 10 16 0.00 0.00
1:15 am 01:15 Clear 27 -2.6 25 -3.7 92 92 W 9 15 30.24 1024 10 16 0.00 0.00
1:35 am 01:35 Clear 28 -2.5 25 -3.7 91 91 W 9 15 30.24 1024 10 16 0.00 0.00
1:55 am 01:55 Clear 27 -2.6 25 -3.8 91 91 WNW 9 15 30.24 1024 10 16 0.00 0.00
2:15 am 02:15 Clear 27 -2.8 25 -4 91 91 W 10 17 30.26 1025 10 16 0.00 0.00
2:35 am 02:35 Clear 27 -3 24 -4.2 91 91 WNW 12 19 30.26 1025 10 16 0.00 0.00
2:55 am 02:55 Clear 25 -3.9 23 -5.1 91 91 WNW 7 11 30.27 1025 10 16 0.00 0.00
3:15 am 03:15 Clear 24 -4.5 22 -5.7 91 91 NW 7 11 30.27 1025 10 16 0.00 0.00
3:35 am 03:35 Clear 23 -5.2 20 -6.4 91 91 NW 10 17 30.28 1025 10 16 0.00 0.00
3:55 am 03:55 Clear 23 -5.1 21 -6.2 92 92 NW 8 13 30.28 1025 10 16 0.00 0.00
4:15 am 04:15 Clear 20 -6.7 18 -7.8 92 92 NW 7 11 30.30 1026 10 16 0.00 0.00
4:35 am 04:35 Clear 20 -6.8 18 -7.9 92 92 WNW 7 11 30.30 1026 10 16 0.00 0.00
4:55 am 04:55 Clear 18 -7.6 16 -8.7 92 92 NW 8 13 30.31 1027 10 16 0.00 0.00
5:15 am 05:15 Clear 19 -7.2 17 -8.2 93 93 WNW 8 13 30.31 1026 10 16 0.00 0.00
5:35 am 05:35 Clear 18 -8 16 -9 92 92 NNW 5 7 30.33 1027 10 16 0.00 0.00
5:55 am 05:55 Clear 17 -8.1 15 -9.2 92 92 NNW 3 6 30.33 1027 10 16 0.00 0.00
6:15 am 06:15 Clear 17 -8.5 15 -9.4 93 93 NNW 6 9 30.32 1027 10 16 0.00 0.00
6:35 am 06:35 Clear 18 -7.8 16 -9 91 91 NNW 6 9 30.32 1027 10 16 0.00 0.00
6:55 am 06:55 Clear 17 -8.5 14 -9.8 90 90 WSW 3 6 30.34 1027 10 16 0.00 0.00
7:15 am 07:15 Clear 17 -8.6 15 -9.7 92 92 WSW 3 6 30.35 1028 10 16 0.00 0.00
7:35 am 07:35 Clear 16 -8.9 14 -10 92 92 Calm 30.34 1027 10 16 0.00 0.00
7:55 am 07:55 Sunny 18 -8 16 -9 92 92 W 3 6 30.32 1027 10 16 0.00 0.00
8:15 am 08:15 Sunny 15 -9.4 13 -10.5 92 92 W 5 7 30.35 1028 10 16 0.00 0.00
8:35 am 08:35 Sunny 17 -8.5 15 -9.7 91 91 WNW 6 9 30.34 1027 10 16 0.00 0.00
8:55 am 08:55 Sunny 20 -6.9 17 -8.1 91 91 WNW 7 11 30.32 1027 10 16 0.00 0.00
9:15 am 09:15 Sunny 22 -5.4 20 -6.9 89 89 WNW 9 15 30.30 1026 10 16 0.00 0.00
9:35 am 09:35 Sunny 25 -3.8 22 -5.6 87 87 NW 7 11 30.27 1025 10 16 0.00 0.00
9:55 am 09:55 Sunny 27 -2.7 24 -4.7 86 86 WNW 6 9 30.28 1025 10 16 0.00 0.00
10:15 am 10:15 Sunny 28 -2 25 -4.1 85 85 NW 5 7 30.26 1025 10 16 0.00 0.00
10:35 am 10:35 Sunny 30 -1.1 26 -3.6 83 83 NW 3 6 30.24 1024 10 16 0.00 0.00
10:55 am 10:55 Sunny 31 -0.6 26 -3.3 82 82 WNW 3 6 30.23 1024 10 16 0.00 0.00
11:15 am 11:15 Sunny 32 0 28 -2.2 85 85 W 3 6 30.24 1024 10 16 0.00 0.00
11:35 am 11:35 Sunny 32 0.2 28 -2.4 83 83 Calm 30.23 1024 10 16 0.00 0.00
11:55 am 11:55 Sunny 34 1 27 -2.7 76 76 Calm 30.21 1023 10 16 0.00 0.00
12:15 pm 12:15 Sunny 35 1.6 28 -2.5 74 74 Calm 30.19 1022 10 16 0.00 0.00
12:35 pm 12:35 Sunny 37 2.6 28 -2 72 72 SE 3 6 30.18 1022 10 16 0.00 0.00
12:55 pm 12:55 Sunny 38 3.6 29 -1.6 69 69 SSE 3 6 30.15 1021 10 16 0.00 0.00
1:15 pm 13:15 Sunny 40 4.5 30 -1 67 67 Calm 30.13 1020 10 16 0.00 0.00
1:35 pm 13:35 Sunny 41 5.1 30 -1.3 63 63 SSW 5 7 30.13 1020 10 16 0.00 0.00
1:55 pm 13:55 Sunny 43 6.1 31 -0.8 61 61 S 5 7 30.10 1019 10 16 0.00 0.00
2:15 pm 14:15 Sunny 44 6.7 32 0.1 63 63 S 10 17 30.09 1019 10 16 0.00 0.00
2:35 pm 14:35 Sunny 44 6.4 31 -0.5 61 61 S 7 11 30.09 1019 10 16 0.00 0.00
2:55 pm 14:55 Sunny 44 6.7 30 -1.3 57 57 SSE 9 15 30.07 1018 10 16 0.00 0.00
3:15 pm 15:15 Sunny 44 6.7 28 -2 54 54 S 10 17 30.07 1018 10 16 0.00 0.00
3:35 pm 15:35 Sunny 44 6.5 28 -2.5 53 53 S 9 15 30.06 1018 10 16 0.00 0.00
3:55 pm 15:55 Sunny 43 6.2 27 -2.7 53 53 S 9 15 30.07 1018 10 16 0.00 0.00
4:15 pm 16:15 Sunny 43 5.9 28 -2.4 55 55 SSE 9 15 30.06 1018 10 16 0.00 0.00
4:35 pm 16:35 Sunny 41 5.1 28 -2 60 60 SSE 10 17 30.07 1018 10 16 0.00 0.00
4:55 pm 16:55 Sunny 38 3.5 28 -2.3 66 66 SSE 9 15 30.08 1019 10 16 0.00 0.00
5:15 pm 17:15 Clear 38 3.1 28 -2.5 67 67 SE 8 13 30.08 1018 10 16 0.00 0.00
5:35 pm 17:35 Clear 37 2.5 27 -2.6 69 69 SE 8 13 30.07 1018 10 16 0.00 0.00
5:55 pm 17:55 Clear 35 1.9 28 -2.5 73 73 SE 7 11 30.08 1019 10 16 0.00 0.00
6:15 pm 18:15 Clear 34 1.2 27 -2.6 76 76 SE 8 13 30.08 1018 10 16 0.00 0.00
6:35 pm 18:35 Clear 33 0.5 26 -3.2 76 76 ESE 6 9 30.09 1019 10 16 0.00 0.00
6:55 pm 18:55 Clear 32 -0.1 25 -3.8 76 76 SE 6 9 30.11 1020 10 16 0.00 0.00
7:15 pm 19:15 Clear 31 -0.7 25 -4 78 78 Calm 30.13 1020 10 16 0.00 0.00
7:35 pm 19:35 Clear 28 -2.3 24 -4.6 84 84 E 5 7 30.15 1021 10 16 0.00 0.00
7:55 pm 19:55 Clear 28 -2.5 24 -4.5 86 86 ENE 6 9 30.16 1021 10 16 0.00 0.00
8:15 pm 20:15 Clear 28 -2.5 23 -4.8 84 84 E 3 6 30.16 1021 10 16 0.00 0.00
8:35 pm 20:35 Clear 28 -2.2 24 -4.3 85 85 ESE 7 11 30.16 1021 10 16 0.00 0.00
8:55 pm 20:55 Clear 32 -0.2 26 -3.5 78 78 SE 7 11 30.14 1021 10 16 0.00 0.00
9:15 pm 21:15 Clear 31 -0.6 25 -3.9 78 78 SE 5 7 30.14 1021 10 16 0.00 0.00
9:35 pm 21:35 Clear 29 -1.4 24 -4.2 81 81 ESE 3 6 30.14 1021 10 16 0.00 0.00
9:55 pm 21:55 Clear 29 -1.9 24 -4.5 82 82 ESE 7 11 30.16 1021 10 16 0.00 0.00
10:15 pm 22:15 Clear 28 -2.3 24 -4.4 85 85 SE 7 11 30.15 1021 10 16 0.00 0.00
10:35 pm 22:35 Clear 27 -2.9 23 -4.8 87 87 SE 6 9 30.16 1021 10 16 0.00 0.00
10:55 pm 22:55 Clear 27 -2.7 24 -4.5 87 87 SE 6 9 30.15 1021 10 16 0.00 0.00
11:15 pm 23:15 Clear 27 -3 24 -4.5 89 89 SE 6 9 30.16 1021 10 16 0.00 0.00
11:35 pm 23:35 Clear 26 -3.4 23 -5 89 89 SE 5 7 30.17 1022 10 16 0.00 0.00
11:55 pm 23:55 Clear 26 -3.2 24 -4.4 91 91 ESE 5 7 30.17 1022 10 16 0.00 0.00

Powered by AerisWeather